Location: Briis
(48.6240°N, 2.1211°E)
Time: 11:26:50
(UTC+00:00)

Cosmos 967 Rocket - Pass Details

Date: 25 September 2020
Orbit: 951 x 986 km, 65.8° (Epoch: 31 October)

Event Time Altitude Azimuth Distance (km) Brightness Sun altitude
Exits shadow 04:03:44 22° 226° (SW) 1,993 5.6 -16.9°
Maximum altitude 04:08:03 76° 309° (NW) 1,016 4.5 -16.2°
Drops below altitude 10° 04:14:28 10° 35° (NE) 2,732 7.6 -15.2°
Sets 04:17:03 0° 37° (NE) 3,678 8.4 -14.8°
